When you browse on this site, cookies collect data to enhance your experience and personalize the content and advertising you see.
Visit our Privacy Policy to learn more. By continuing to use the site, you agree to this use of cookies and data.
  • In Denmark
  • List of Countries
  • For 7 days
  • Water Temperature
  • Satellite Maps
  • Weather Map
  • Weather Widgets
  • user-avatar
    Login

    Hourly Weather Albany

    Today, 24 April, Wednesday

    Time Temperature Precipitation Wind Pressure Humidity
    00:00 +15°C° 0 mm 1 mps 767 mmHg 90%
    01:00 +15°C° 0 mm 1 mps 767 mmHg 90%
    02:00 +14°C° 0 mm 1 mps 767 mmHg 90%
    03:00 +14°C° 0 mm 1 mps 768 mmHg 90%
    04:00 +13°C° 0 mm 0 mps 768 mmHg 90%
    05:00 +13°C° 0 mm 0 mps 768 mmHg 90%
    06:00 +14°C° 0 mm 0 mps 768 mmHg 87%
    07:00 +14°C° 0 mm 0 mps 768 mmHg 83%
    08:00 +15°C° 0 mm 0 mps 768 mmHg 78%
    09:00 +17°C° 0 mm 0 mps 768 mmHg 71%
    10:00 +21°C° 0 mm 1 mps 768 mmHg 64%
    11:00 +22°C° 0 mm 1 mps 768 mmHg 57%
    12:00 +22°C° 0 mm 1 mps 768 mmHg 56%
    13:00 +23°C° 0 mm 2 mps 767 mmHg 55%
    14:00 +21°C° 0 mm 3 mps 767 mmHg 55%
    15:00 +20°C° 0 mm 3 mps 767 mmHg 60%
    16:00 +19°C° 0 mm 3 mps 767 mmHg 65%
    17:00 +18°C° 0 mm 3 mps 767 mmHg 70%
    18:00 +17°C° 0 mm 3 mps 767 mmHg 74%
    19:00 +16°C° 0 mm 3 mps 767 mmHg 79%
    20:00 +15°C° 0 mm 2 mps 768 mmHg 84%
    21:00 +15°C° 0 mm 2 mps 768 mmHg 85%
    22:00 +15°C° 0 mm 2 mps 768 mmHg 86%
    23:00 +15°C° 0 mm 2 mps 768 mmHg 87%

    Tomorrow, 25 April, Thursday

    Time Temperature Precipitation Wind Pressure Humidity
    00:00 +14°C° 0 mm 2 mps 767 mmHg 88%
    01:00 +14°C° 0 mm 2 mps 767 mmHg 90%
    02:00 +14°C° 0 mm 1 mps 767 mmHg 92%
    03:00 +14°C° 0 mm 1 mps 767 mmHg 92%
    04:00 +14°C° 0 mm 1 mps 767 mmHg 93%
    05:00 +13°C° 0 mm 1 mps 767 mmHg 94%
    06:00 +14°C° 0 mm 1 mps 768 mmHg 91%
    07:00 +14°C° 0 mm 0 mps 768 mmHg 89%
    08:00 +15°C° 0 mm 0 mps 768 mmHg 86%
    09:00 +18°C° 0 mm 1 mps 768 mmHg 79%
    10:00 +19°C° 0 mm 2 mps 768 mmHg 72%
    11:00 +21°C° 0 mm 2 mps 768 mmHg 65%
    12:00 +21°C° 0 mm 3 mps 768 mmHg 65%
    13:00 +21°C° 0 mm 4 mps 767 mmHg 65%
    14:00 +21°C° 0 mm 4 mps 767 mmHg 65%
    15:00 +20°C° 0 mm 4 mps 767 mmHg 68%
    16:00 +19°C° 0 mm 4 mps 767 mmHg 72%
    17:00 +18°C° 0 mm 4 mps 767 mmHg 76%
    18:00 +17°C° 0 mm 4 mps 767 mmHg 79%
    19:00 +15°C° 0 mm 4 mps 768 mmHg 83%
    20:00 +14°C° 0 mm 3 mps 768 mmHg 86%
    21:00 +14°C° 0 mm 3 mps 768 mmHg 87%
    22:00 +14°C° 0 mm 4 mps 768 mmHg 87%
    23:00 +14°C° 0 mm 4 mps 769 mmHg 88%

    Day after tomorrow, 26 April, Friday

    Time Temperature Precipitation Wind Pressure Humidity
    00:00 +14°C° 0 mm 4 mps 769 mmHg 88%
    01:00 +14°C° 0 mm 4 mps 769 mmHg 88%
    02:00 +14°C° 0 mm 4 mps 769 mmHg 89%
    03:00 +13°C° 0 mm 4 mps 769 mmHg 89%
    04:00 +13°C° 0 mm 4 mps 768 mmHg 89%
    05:00 +13°C° 0 mm 4 mps 768 mmHg 90%
    06:00 +14°C° 0 mm 4 mps 769 mmHg 87%
    07:00 +14°C° 0 mm 4 mps 769 mmHg 85%
    08:00 +15°C° 0 mm 4 mps 769 mmHg 83%
    09:00 +17°C° 0 mm 4 mps 769 mmHg 75%
    10:00 +19°C° 0 mm 4 mps 768 mmHg 68%
    11:00 +21°C° 0 mm 4 mps 768 mmHg 61%
    12:00 +22°C° 0 mm 4 mps 768 mmHg 56%
    13:00 +23°C° 0 mm 4 mps 767 mmHg 52%
    14:00 +25°C° 0 mm 4 mps 766 mmHg 47%
    15:00 +23°C° 0 mm 4 mps 766 mmHg 52%
    16:00 +22°C° 0 mm 4 mps 766 mmHg 57%
    17:00 +21°C° 0 mm 5 mps 766 mmHg 61%
    18:00 +19°C° 0 mm 5 mps 766 mmHg 69%
    19:00 +17°C° 0 mm 5 mps 767 mmHg 77%
    20:00 +16°C° 0 mm 5 mps 767 mmHg 85%
    21:00 +15°C° 0 mm 5 mps 767 mmHg 86%
    22:00 +15°C° 0 mm 5 mps 767 mmHg 87%
    23:00 +15°C° 0 mm 5 mps 767 mmHg 88%

    27 April, Saturday

    Time Temperature Precipitation Wind Pressure Humidity
    00:00 +15°C° 0 mm 5 mps 767 mmHg 87%
    01:00 +14°C° 0 mm 4 mps 766 mmHg 86%
    02:00 +14°C° 0 mm 4 mps 766 mmHg 86%
    03:00 +14°C° 0 mm 4 mps 766 mmHg 84%
    04:00 +14°C° 0 mm 3 mps 766 mmHg 82%
    05:00 +14°C° 0 mm 3 mps 766 mmHg 80%
    06:00 +14°C° 0 mm 3 mps 766 mmHg 74%
    07:00 +16°C° 0 mm 3 mps 766 mmHg 68%
    08:00 +17°C° 0 mm 3 mps 766 mmHg 62%
    09:00 +20°C° 0 mm 3 mps 766 mmHg 54%
    10:00 +22°C° 0 mm 3 mps 766 mmHg 47%
    11:00 +25°C° 0 mm 3 mps 766 mmHg 40%
    12:00 +26°C° 0 mm 3 mps 765 mmHg 38%
    13:00 +27°C° 0 mm 3 mps 764 mmHg 36%
    14:00 +28°C° 0 mm 3 mps 764 mmHg 34%
    15:00 +26°C° 0 mm 3 mps 764 mmHg 38%
    16:00 +25°C° 0 mm 3 mps 764 mmHg 41%
    17:00 +24°C° 0 mm 3 mps 764 mmHg 45%
    18:00 +21°C° 0 mm 3 mps 764 mmHg 49%
    19:00 +20°C° 0 mm 3 mps 764 mmHg 53%
    20:00 +18°C° 0 mm 4 mps 764 mmHg 57%
    21:00 +18°C° 0 mm 4 mps 764 mmHg 56%
    22:00 +18°C° 0 mm 4 mps 764 mmHg 55%
    23:00 +17°C° 0 mm 4 mps 763 mmHg 54%

    28 April, Sunday

    Time Temperature Precipitation Wind Pressure Humidity
    00:00 +17°C° 0 mm 4 mps 763 mmHg 52%
    01:00 +17°C° 0 mm 4 mps 763 mmHg 51%
    02:00 +17°C° 0 mm 3 mps 762 mmHg 49%
    03:00 +17°C° 0 mm 3 mps 762 mmHg 48%
    04:00 +17°C° 0 mm 4 mps 762 mmHg 47%
    05:00 +17°C° 0 mm 4 mps 762 mmHg 46%
    06:00 +17°C° 0 mm 4 mps 762 mmHg 46%
    07:00 +17°C° 0 mm 5 mps 762 mmHg 46%
    08:00 +19°C° 0 mm 5 mps 762 mmHg 46%
    09:00 +21°C° 0 mm 5 mps 762 mmHg 42%
    10:00 +23°C° 0 mm 5 mps 761 mmHg 38%
    11:00 +26°C° 0 mm 5 mps 761 mmHg 34%
    12:00 +27°C° 0 mm 5 mps 760 mmHg 32%
    13:00 +27°C° 0 mm 4 mps 760 mmHg 31%
    14:00 +28°C° 0 mm 4 mps 759 mmHg 29%
    15:00 +27°C° 0 mm 3 mps 759 mmHg 32%
    16:00 +26°C° 0 mm 3 mps 758 mmHg 35%
    17:00 +25°C° 0 mm 2 mps 758 mmHg 38%
    18:00 +24°C° 0 mm 3 mps 758 mmHg 38%
    19:00 +22°C° 0 mm 3 mps 758 mmHg 39%
    20:00 +21°C° 0 mm 4 mps 758 mmHg 39%
    21:00 +21°C° 0 mm 4 mps 758 mmHg 40%
    22:00 +21°C° 0 mm 4 mps 758 mmHg 42%
    23:00 +20°C° 0 mm 4 mps 757 mmHg 43%

    29 April, Monday

    Time Temperature Precipitation Wind Pressure Humidity
    00:00 +20°C° 0 mm 4 mps 757 mmHg 45%
    01:00 +20°C° 0 mm 4 mps 757 mmHg 47%
    02:00 +20°C° 0 mm 4 mps 757 mmHg 49%
    03:00 +19°C° 0 mm 4 mps 757 mmHg 53%
    04:00 +19°C° 0 mm 4 mps 757 mmHg 58%
    05:00 +19°C° 0 mm 4 mps 757 mmHg 63%
    06:00 +19°C° 0.1 mm 4 mps 757 mmHg 71%
    07:00 +17°C° 0.1 mm 5 mps 758 mmHg 79%
    08:00 +17°C° 0.1 mm 5 mps 758 mmHg 87%
    09:00 +17°C° 0.1 mm 5 mps 758 mmHg 84%
    10:00 +17°C° 0.1 mm 5 mps 758 mmHg 81%
    11:00 +16°C° 0.1 mm 5 mps 759 mmHg 78%
    12:00 +16°C° 0 mm 5 mps 758 mmHg 74%
    13:00 +16°C° 0 mm 6 mps 758 mmHg 71%
    14:00 +16°C° 0 mm 6 mps 758 mmHg 67%
    15:00 +16°C° 0 mm 6 mps 758 mmHg 67%
    16:00 +16°C° 0 mm 5 mps 759 mmHg 67%
    17:00 +15°C° 0 mm 5 mps 759 mmHg 67%
    18:00 +15°C° 0.1 mm 5 mps 760 mmHg 68%
    19:00 +14°C° 0.1 mm 5 mps 760 mmHg 70%
    20:00 +14°C° 0.1 mm 5 mps 761 mmHg 71%
    21:00 +14°C° 0 mm 5 mps 761 mmHg 71%
    22:00 +13°C° 0 mm 5 mps 762 mmHg 71%
    23:00 +13°C° 0 mm 5 mps 762 mmHg 71%
    Show more